QPF
0.01 0.02 0.01 0.00 0.00 0.00 0.00 0.00 0.00 0.00 0.00 0.00 0.00 0.00 0.00 0.00 0.00 0.00 0.00 0.00 0.00 0.00 0.00 0.00 0.00 0.00 0.00 0.00 0.00 0.00 0.00 0.00 0.00 0.00 0.00 0.00 0.00 0.00 0.00 0.00 0.00 0.00 0.00 0.00
0.01 0.02 0.02 0.00 0.00 0.00 0.00 0.00 0.00 0.00 0.00 0.00 0.00 0.00 0.00 0.00 0.00 0.00 0.00 0.00 0.00 0.00 0.00 0.00 0.00 0.00 0.00 0.00 0.00 0.00 0.00 0.00 0.00 0.00 0.00 0.00 0.00 0.00 0.00 0.00 0.00 0.00 0.00 0.00
0.01 0.01 0.03 0.04 0.02 0.02 0.00 0.00 0.00 0.00 0.00 0.00 0.00 0.00 0.00 0.00 0.00 0.00 0.00 0.00 0.00 0.00 0.00 0.00 0.00 0.00 0.00 0.00 0.00 0.00 0.00 0.00 0.00 0.00 0.00 0.00 0.00 0.00 0.00 0.00 0.00 0.00 0.00 0.00
0.00 0.01 0.02 0.02 0.01 0.03 0.00 0.00 0.00 0.00 0.00 0.00 0.00 0.00 0.00 0.00 0.00 0.00 0.00 0.00 0.00 0.00 0.00 0.00 0.00 0.00 0.00 0.00 0.00 0.00 0.00 0.00 0.00 0.00 0.00 0.00 0.00 0.00 0.00 0.00 0.00 0.00 0.00 0.00
0.01 0.00 0.00 0.00 0.00 0.02 0.01 0.00 0.00 0.00 0.00 0.00 0.00 0.00 0.00 0.00 0.00 0.00 0.00 0.00 0.00 0.00 0.00 0.00 0.00 0.00 0.00 0.00 0.00 0.00 0.00 0.00 0.00 0.00 0.00 0.00 0.00 0.00 0.00 0.00 0.00 0.00 0.00 0.00
0.01 0.01 0.00 0.00 0.01 0.02 0.02 0.01 0.01 0.00 0.00 0.00 0.00 0.00 0.00 0.00 0.00 0.00 0.00 0.00 0.00 0.00 0.00 0.00 0.00 0.00 0.00 0.01 0.01 0.01 0.00 0.00 0.00 0.00 0.00 0.00 0.00 0.00 0.00 0.00 0.00 0.00 0.00 0.00
0.01 0.01 0.01 0.00 0.00 0.01 0.01 0.01 0.02 0.00 0.00 0.00 0.00 0.00 0.00 0.00 0.00 0.00 0.00 0.00 0.00 0.00 0.00 0.00 0.00 0.00 0.00 0.01 0.01 0.01 0.00 0.00 0.00 0.00 0.00 0.00 0.00 0.00 0.00 0.00 0.00 0.00 0.00 0.00
0.02 0.01 0.00 0.00 0.01 0.03 0.01 0.00 0.00 0.00 0.00 0.00 0.00 0.00 0.00 0.00 0.00 0.00 0.00 0.00 0.00 0.00 0.00 0.00 0.00 0.00 0.00 0.00 0.00 0.00 0.00 0.00 0.01 0.00 0.00 0.00 0.00 0.00 0.00 0.00 0.00 0.00 0.00 0.00
0.03 0.02 0.03 0.02 0.01 0.01 0.02 0.01 0.01 0.00 0.00 0.00 0.00 0.00 0.00 0.00 0.00 0.00 0.00 0.00 0.00 0.00 0.00 0.00 0.00 0.00 0.00 0.00 0.00 0.00 0.00 0.01 0.02 0.01 0.01 0.00 0.00 0.00 0.00 0.00 0.00 0.00 0.00 0.00
0.03 0.03 0.02 0.02 0.02 0.02 0.02 0.01 0.00 0.00 0.00 0.00 0.00 0.00 0.00 0.00 0.01 0.00 0.00 0.00 0.00 0.00 0.00 0.00 0.00 0.00 0.00 0.00 0.00 0.00 0.00 0.00 0.01 0.02 0.01 0.00 0.00 0.00 0.00 0.00 0.00 0.00 0.00 0.00
0.02 0.02 0.03 0.03 0.03 0.05 0.03 0.00 0.00 0.00 0.00 0.00 0.00 0.00 0.00 0.00 0.00 0.01 0.00 0.00 0.00 0.00 0.00 0.01 0.00 0.00 0.00 0.00 0.00 0.00 0.00 0.00 0.00 0.01 0.01 0.00 0.00 0.00 0.00 0.00 0.00 0.00 0.00 0.00
0.03 0.02 0.02 0.02 0.02 0.03 0.04 0.00 0.00 0.02 0.01 0.00 0.00 0.00 0.00 0.00 0.00 0.01 0.00 0.01 0.00 0.00 0.00 0.00 0.00 0.00 0.00 0.00 0.00 0.00 0.00 0.00 0.00 0.00 0.00 0.00 0.00 0.00 0.00 0.00 0.00 0.00 0.00 0.00
0.01 0.02 0.03 0.03 0.03 0.02 0.02 0.00 0.01 0.02 0.01 0.00 0.00 0.00 0.00 0.00 0.00 0.00 0.01 0.00 0.00 0.00 0.00 0.00 0.00 0.00 0.00 0.00 0.00 0.00 0.00 0.00 0.00 0.00 0.00 0.00 0.00 0.00 0.00 0.00 0.00 0.00 0.00 0.00
0.05 0.03 0.03 0.02 0.01 0.02 0.03 0.00 0.00 0.03 0.02 0.01 0.00 0.00 0.00 0.00 0.00 0.00 0.00 0.01 0.01 0.00 0.00 0.00 0.00 0.00 0.00 0.00 0.00 0.00 0.00 0.00 0.00 0.00 0.00 0.00 0.00 0.00 0.00 0.00 0.00 0.00 0.00 0.00
0.04 0.06 0.04 0.03 0.03 0.05 0.04 0.00 0.00 0.00 0.01 0.00 0.00 0.00 0.00 0.00 0.00 0.00 0.00 0.00 0.01 0.00 0.00 0.00 0.00 0.00 0.00 0.00 0.00 0.00 0.00 0.00 0.00 0.00 0.00 0.00 0.00 0.00 0.00 0.00 0.00 0.00 0.00 0.00
0.03 0.06 0.05 0.04 0.05 0.07 0.02 0.00 0.00 0.00 0.00 0.00 0.00 0.00 0.00 0.00 0.00 0.00 0.00 0.00 0.00 0.00 0.00 0.00 0.00 0.00 0.00 0.00 0.00 0.00 0.00 0.00 0.00 0.00 0.00 0.00 0.00 0.00 0.00 0.00 0.00 0.00 0.00 0.00
0.02 0.03 0.03 0.03 0.04 0.04 0.00 0.00 0.00 0.00 0.01 0.01 0.01 0.00 0.00 0.00 0.00 0.00 0.00 0.00 0.00 0.00 0.00 0.00 0.00 0.00 0.00 0.00 0.00 0.00 0.00 0.00 0.00 0.00 0.00 0.00 0.00 0.00 0.00 0.00 0.00 0.00 0.00 0.00
0.01 0.02 0.01 0.01 0.04 0.08 0.02 0.00 0.00 0.01 0.00 0.01 0.01 0.00 0.00 0.00 0.00 0.00 0.00 0.00 0.00 0.00 0.00 0.00 0.00 0.00 0.00 0.00 0.00 0.00 0.00 0.00 0.00 0.00 0.00 0.00 0.00 0.00 0.00 0.00 0.00 0.00 0.00 0.00
0.02 0.03 0.06 0.08 0.07 0.02 0.00 0.00 0.01 0.00 0.01 0.01 0.00 0.00 0.00 0.00 0.00 0.00 0.00 0.00 0.00 0.00 0.00 0.00 0.00 0.00 0.00 0.00 0.00 0.00 0.00 0.00 0.00 0.00 0.00 0.00 0.00 0.00 0.00 0.00 0.00 0.00 0.00 0.00
0.05 0.06 0.05 0.02 0.00 0.00 0.00 0.00 0.00 0.01 0.01 0.00 0.00 0.00 0.00 0.00 0.00 0.00 0.00 0.00 0.00 0.00 0.00 0.00 0.00 0.00 0.00 0.00 0.00 0.00 0.00 0.00 0.00 0.00 0.00 0.00 0.00 0.00 0.00 0.00 0.00 0.00 0.00 0.00
0.02 0.01 0.00 0.00 0.00 0.00 0.00 0.00 0.00 0.00 0.00 0.00 0.00 0.00 0.00 0.00 0.00 0.00 0.00 0.00 0.00 0.00 0.00 0.00 0.00 0.00 0.00 0.00 0.00 0.00 0.00 0.00 0.00 0.00 0.00 0.00 0.00 0.00 0.00 0.00 0.00 0.00 0.00 0.00
0.00 0.00 0.00 0.00 0.00 0.00 0.00 0.00 0.00 0.00 0.00 0.00 0.00 0.00 0.00 0.00 0.00 0.00 0.00 0.00 0.00 0.00 0.00 0.00 0.00 0.00 0.00 0.00 0.00 0.00 0.00 0.00 0.00 0.00 0.00 0.00 0.00 0.00 0.00 0.00 0.00 0.00 0.00 0.00
0.00 0.00 0.00 0.00 0.00 0.00 0.00 0.00 0.00 0.00 0.00 0.00 0.00 0.00 0.00 0.00 0.00 0.00 0.00 0.00 0.00 0.00 0.00 0.00 0.00 0.00 0.00 0.00 0.00 0.00 0.00 0.00 0.00 0.00 0.00 0.00 0.00 0.00 0.00 0.00 0.00 0.00 0.00 0.00
0.00 0.00 0.00 0.00 0.00 0.00 0.00 0.00 0.00 0.00 0.00 0.00 0.00 0.00 0.00 0.00 0.00 0.00 0.00 0.00 0.00 0.00 0.00 0.00 0.00 0.00 0.00 0.00 0.00 0.00 0.00 0.00 0.00 0.00 0.00 0.00 0.00 0.00 0.00 0.00 0.00 0.00 0.00 0.00
0.00 0.00 0.00 0.00 0.00 0.00 0.00 0.00 0.00 0.00 0.00 0.00 0.00 0.00 0.00 0.00 0.00 0.00 0.00 0.00 0.00 0.00 0.00 0.00 0.00 0.00 0.00 0.00 0.00 0.00 0.00 0.00 0.00 0.00 0.00 0.00 0.00 0.00 0.00 0.00 0.00 0.00 0.00 0.00
0.00 0.00 0.00 0.00 0.00 0.00 0.00 0.00 0.00 0.00 0.00 0.00 0.00 0.00 0.00 0.00 0.00 0.00 0.00 0.00 0.00 0.00 0.00 0.00 0.00 0.00 0.00 0.00 0.00 0.00 0.00 0.00 0.00 0.00 0.00 0.00 0.00 0.00 0.00 0.00 0.00 0.00 0.00 0.00
0.00 0.00 0.00 0.00 0.00 0.00 0.00 0.00 0.00 0.00 0.00 0.00 0.00 0.00 0.00 0.00 0.00 0.00 0.00 0.00 0.00 0.00 0.00 0.00 0.00 0.00 0.00 0.00 0.00 0.00 0.00 0.00 0.00 0.00 0.00 0.00 0.00 0.00 0.00 0.00 0.00 0.00 0.00 0.00
MSLP
1021.45 1021.45 1021.41 1021.39 1021.39 1021.43 1020.99 1020.96 1020.40 1020.27 1020.02 1020.45 1019.13 1017.62 1016.98 1016.25 1015.77 1016.05 1015.85 1015.46 1015.20 1015.05 1015.99 1016.22 1016.40 1016.14 1016.10 1016.57 1017.30 1017.95 1018.02 1018.53 1018.76 1018.47 1018.92 1019.43 1019.36 1018.85 1019.23 1019.29 1019.08 1018.95 1018.30 1013.93
1021.04 1021.24 1021.21 1021.22 1021.30 1021.40 1021.39 1021.17 1020.87 1020.41 1020.11 1019.48 1018.53 1018.09 1017.59 1017.02 1016.48 1016.11 1015.89 1015.44 1015.14 1015.19 1015.27 1016.19 1015.73 1015.81 1016.29 1016.84 1017.41 1017.44 1018.08 1018.03 1018.25 1018.31 1019.46 1019.48 1019.12 1018.90 1018.48 1018.47 1018.35 1017.25 1017.35 1013.94
1020.62 1020.84 1021.05 1020.99 1021.16 1021.16 1021.58 1021.93 1021.57 1020.74 1020.11 1019.46 1018.93 1018.73 1018.41 1018.03 1017.62 1017.25 1016.97 1016.62 1016.43 1016.44 1016.10 1016.00 1016.22 1016.92 1017.26 1017.45 1017.82 1018.01 1018.19 1018.22 1017.63 1016.62 1016.73 1017.58 1018.34 1018.36 1018.47 1018.38 1017.62 1016.52 1014.61 1013.75
1020.03 1020.55 1020.83 1020.91 1021.19 1021.23 1021.40 1022.18 1021.62 1021.12 1020.48 1019.79 1019.53 1019.51 1019.42 1018.97 1018.78 1018.40 1018.18 1018.03 1017.79 1017.47 1017.50 1017.30 1017.48 1017.77 1018.06 1018.60 1018.95 1019.07 1019.11 1018.99 1018.85 1018.06 1018.26 1018.35 1018.09 1017.82 1017.85 1017.84 1017.06 1016.72 1014.72 1013.86
1019.44 1019.88 1020.50 1020.68 1021.00 1021.23 1021.19 1021.59 1021.65 1021.42 1021.02 1020.54 1019.93 1019.45 1019.19 1019.15 1019.50 1019.78 1019.45 1018.99 1019.00 1018.84 1018.79 1018.74 1018.69 1018.63 1018.85 1019.18 1019.56 1019.87 1019.77 1019.41 1019.31 1018.44 1018.12 1018.02 1017.23 1016.85 1017.15 1017.36 1017.01 1016.30 1015.40 1013.04
1018.90 1019.34 1019.86 1020.29 1020.60 1020.74 1020.68 1020.96 1021.20 1021.31 1021.02 1020.62 1020.22 1019.67 1019.33 1019.04 1019.32 1019.47 1019.51 1019.51 1019.42 1019.19 1019.12 1019.16 1019.39 1019.72 1019.66 1019.46 1019.53 1019.55 1019.83 1019.73 1019.45 1018.04 1017.88 1017.58 1016.40 1015.65 1015.73 1015.83 1015.16 1014.74 1014.33 1013.16
1018.33 1018.71 1019.20 1019.56 1020.01 1020.18 1020.57 1020.83 1020.88 1021.01 1020.64 1020.42 1020.06 1019.77 1019.50 1019.40 1019.22 1019.41 1019.25 1019.42 1019.25 1019.13 1019.15 1019.62 1019.34 1019.07 1019.01 1018.87 1018.79 1018.98 1019.04 1019.31 1019.41 1018.45 1018.65 1016.69 1014.38 1014.67 1014.73 1014.44 1013.97 1013.83 1013.56 1013.25
1017.62 1018.14 1018.50 1018.99 1019.23 1019.57 1020.13 1020.62 1021.07 1021.12 1020.45 1019.95 1019.62 1019.62 1019.49 1019.25 1018.96 1019.39 1019.25 1019.31 1018.88 1018.99 1019.46 1019.43 1019.20 1018.80 1018.66 1017.92 1017.73 1017.91 1018.05 1018.29 1018.50 1018.39 1017.15 1015.52 1014.62 1014.53 1014.82 1014.54 1013.13 1013.34 1013.47 1013.27
1017.06 1017.40 1017.95 1018.06 1018.62 1018.91 1019.55 1019.96 1020.44 1021.04 1020.78 1019.46 1019.47 1019.40 1019.45 1019.08 1018.63 1018.61 1018.63 1018.54 1018.74 1018.99 1019.09 1018.46 1017.67 1017.46 1017.10 1017.19 1017.38 1017.69 1017.47 1017.60 1018.10 1017.67 1016.35 1014.85 1013.64 1014.33 1014.57 1014.65 1013.35 1012.58 1013.03 1012.94
1016.54 1016.76 1017.24 1017.73 1018.19 1018.50 1019.03 1019.48 1019.91 1020.72 1020.57 1019.72 1019.65 1019.09 1018.76 1018.59 1018.69 1018.30 1018.13 1018.35 1018.85 1018.98 1018.21 1017.67 1017.11 1016.50 1016.40 1016.25 1016.24 1017.05 1017.34 1017.36 1016.62 1016.22 1015.23 1014.36 1013.41 1014.16 1014.85 1014.50 1012.88 1012.75 1013.02 1013.27
1015.99 1016.48 1016.74 1017.31 1017.76 1018.09 1018.65 1018.95 1019.43 1020.38 1020.41 1019.88 1019.46 1018.98 1018.65 1018.27 1018.30 1018.23 1018.38 1018.46 1017.98 1018.44 1018.08 1017.27 1016.50 1015.96 1015.60 1015.48 1014.86 1015.04 1015.69 1016.09 1015.79 1015.80 1014.95 1013.81 1013.41 1014.22 1013.98 1012.58 1012.76 1012.96 1013.32 1013.57
1015.78 1015.98 1016.52 1016.72 1017.23 1017.37 1017.89 1018.63 1018.94 1019.36 1019.79 1019.69 1019.18 1018.47 1017.68 1017.47 1017.39 1017.59 1018.04 1017.78 1017.52 1017.40 1016.51 1016.10 1015.95 1015.65 1015.54 1015.16 1014.80 1015.15 1015.05 1014.57 1014.49 1014.43 1013.51 1013.33 1013.44 1012.82 1012.62 1012.99 1012.97 1013.20 1013.45 1013.93
1015.42 1015.69 1015.89 1016.21 1016.50 1016.74 1017.53 1017.95 1018.72 1018.98 1019.28 1019.15 1018.70 1017.65 1016.94 1017.06 1016.65 1016.95 1017.35 1017.10 1016.73 1016.76 1016.87 1016.32 1015.71 1015.18 1015.00 1014.63 1014.27 1014.25 1014.42 1014.51 1014.19 1014.47 1013.33 1013.10 1013.19 1013.15 1013.21 1013.13 1013.22 1013.30 1013.63 1013.91
1014.87 1015.22 1015.43 1015.80 1016.05 1016.46 1016.90 1017.38 1018.01 1018.34 1019.00 1018.71 1017.15 1017.18 1016.98 1016.52 1016.46 1016.61 1016.65 1016.34 1016.91 1016.78 1016.68 1016.42 1015.74 1014.68 1014.31 1014.12 1013.92 1013.62 1013.54 1013.79 1013.26 1013.05 1012.53 1013.16 1012.82 1012.58 1012.38 1012.88 1013.45 1013.61 1013.81 1013.95
1014.23 1014.64 1015.03 1015.36 1015.61 1016.26 1016.64 1016.80 1017.34 1017.44 1018.29 1018.15 1017.34 1016.84 1016.31 1016.62 1016.81 1016.55 1016.53 1016.45 1016.64 1016.64 1016.39 1015.46 1015.01 1014.71 1014.58 1014.27 1014.07 1013.20 1012.75 1012.23 1012.23 1011.47 1011.05 1011.79 1011.57 1011.82 1012.15 1012.70 1012.99 1013.22 1013.67 1014.20
1013.65 1014.05 1014.44 1014.83 1015.27 1015.68 1016.59 1017.08 1016.61 1016.87 1017.24 1018.17 1017.85 1016.21 1016.23 1016.64 1017.07 1016.79 1016.35 1016.52 1016.52 1016.31 1015.80 1015.12 1014.35 1013.74 1014.20 1013.81 1012.97 1010.98 1011.02 1011.36 1011.04 1010.87 1011.33 1011.71 1011.90 1012.46 1012.92 1013.01 1013.14 1013.38 1013.74 1014.09
1013.11 1013.50 1013.97 1014.42 1014.88 1015.72 1015.96 1016.15 1016.35 1016.67 1017.31 1017.50 1016.86 1015.95 1016.23 1016.49 1017.01 1016.83 1016.72 1016.64 1016.52 1015.90 1015.38 1015.09 1014.64 1014.19 1014.28 1013.51 1012.67 1011.17 1011.42 1011.36 1011.39 1011.44 1012.18 1012.55 1012.61 1012.78 1013.09 1013.35 1013.45 1013.73 1014.05 1014.52
1012.54 1013.01 1013.52 1013.91 1014.36 1015.17 1015.74 1016.02 1015.99 1016.44 1017.20 1017.47 1016.69 1016.06 1016.69 1016.73 1016.57 1016.66 1016.59 1016.43 1016.40 1015.68 1015.01 1015.35 1015.14 1014.99 1014.81 1013.83 1012.08 1012.38 1012.68 1012.37 1012.25 1012.40 1012.67 1012.91 1013.15 1013.49 1013.82 1013.95 1014.06 1014.29 1014.62 1015.12
1011.84 1012.41 1013.04 1013.71 1014.21 1014.75 1014.86 1015.06 1015.49 1016.19 1017.07 1016.72 1016.47 1015.95 1016.05 1016.54 1016.43 1016.45 1016.56 1016.51 1016.04 1015.91 1015.54 1015.47 1015.54 1015.06 1014.65 1013.87 1013.84 1013.80 1013.96 1013.63 1013.31 1013.50 1013.51 1013.87 1013.82 1014.23 1014.49 1014.53 1014.70 1014.86 1015.34 1015.88
1011.39 1012.36 1013.25 1013.50 1014.00 1013.77 1014.29 1015.43 1015.95 1016.24 1016.24 1016.38 1015.98 1016.00 1016.16 1016.39 1016.16 1016.25 1016.63 1016.33 1015.96 1015.77 1015.88 1016.07 1015.66 1014.88 1015.05 1015.83 1016.10 1015.93 1015.57 1015.03 1014.51 1014.62 1014.46 1014.40 1014.43 1014.70 1015.02 1015.17 1015.49 1015.57 1016.00 1016.67
1011.10 1012.26 1013.33 1014.37 1014.02 1014.25 1014.70 1015.18 1015.55 1015.62 1015.51 1015.12 1015.00 1015.28 1015.55 1016.13 1015.93 1015.82 1016.07 1015.91 1016.09 1016.16 1016.33 1016.51 1016.17 1015.71 1016.17 1016.73 1016.88 1016.74 1016.37 1015.98 1015.48 1015.22 1014.62 1014.50 1014.68 1015.20 1015.69 1016.05 1016.28 1016.62 1017.01 1017.43
1010.84 1012.03 1013.45 1014.60 1014.90 1015.30 1015.62 1015.80 1016.04 1015.73 1015.11 1015.18 1015.27 1015.45 1015.50 1015.79 1015.75 1015.64 1015.93 1015.98 1016.43 1016.32 1016.99 1017.06 1016.41 1016.52 1017.25 1017.76 1017.80 1017.44 1016.89 1016.34 1016.10 1015.80 1015.54 1015.52 1015.68 1016.10 1016.56 1016.88 1017.21 1017.52 1017.88 1018.24
1011.46 1012.62 1014.42 1015.19 1016.20 1016.15 1015.83 1015.94 1015.79 1015.63 1015.19 1015.41 1015.62 1015.78 1015.65 1015.99 1015.92 1015.82 1015.97 1016.23 1016.74 1017.12 1017.44 1016.90 1016.92 1017.59 1017.97 1018.13 1017.99 1017.83 1017.69 1017.41 1017.09 1016.93 1016.95 1017.01 1017.16 1017.36 1017.56 1017.86 1018.12 1018.38 1018.59 1018.76
1012.45 1013.58 1015.39 1015.99 1016.34 1015.95 1015.47 1015.55 1015.71 1015.91 1015.74 1015.70 1015.75 1015.98 1015.99 1016.17 1016.21 1016.36 1016.34 1017.14 1017.35 1017.69 1017.79 1017.37 1017.85 1018.35 1018.57 1018.75 1018.80 1018.69 1018.71 1018.43 1018.23 1018.16 1018.12 1018.07 1018.09 1018.22 1018.30 1018.41 1018.65 1018.77 1018.82 1018.85
1014.28 1014.78 1016.00 1016.64 1016.79 1016.87 1016.90 1016.90 1016.74 1016.74 1016.38 1016.17 1016.32 1016.54 1016.66 1016.80 1016.97 1017.03 1017.40 1017.73 1017.69 1017.84 1017.85 1018.33 1018.81 1019.22 1019.40 1019.36 1019.31 1019.22 1019.15 1019.10 1019.02 1018.96 1018.81 1018.79 1018.80 1018.80 1018.71 1018.68 1018.76 1018.77 1018.79 1018.79
1016.35 1017.21 1017.50 1017.46 1017.40 1017.73 1017.70 1017.65 1017.66 1017.77 1017.23 1016.97 1016.99 1017.25 1017.44 1017.74 1017.73 1017.81 1017.79 1018.07 1018.10 1018.45 1018.91 1019.20 1019.43 1019.60 1019.79 1019.82 1019.69 1019.49 1019.38 1019.28 1019.14 1019.11 1019.08 1018.94 1018.90 1018.95 1018.77 1018.62 1018.58 1018.49 1018.52 1018.35
1018.61 1019.07 1018.79 1018.73 1018.75 1018.94 1019.01 1019.06 1019.07 1018.88 1018.33 1018.20 1018.39 1018.62 1018.87 1019.18 1018.96 1018.86 1018.99 1019.01 1019.25 1019.45 1019.62 1019.76 1019.92 1020.00 1019.93 1019.83 1019.68 1019.41 1019.21 1019.05 1018.96 1018.92 1018.90 1018.85 1018.79 1018.98 1018.82 1018.46 1017.82 1017.89 1017.82 1017.64
Thickness
5491 5498 5504 5510 5516 5520 5524 5529 5546 5544 5549 5551 5559 5578 5585 5591 5596 5594 5592 5598 5605 5608 5594 5588 5590 5595 5603 5593 5583 5576 5579 5571 5572 5579 5568 5560 5561 5569 5560 5547 5543 5529 5521 5568
5474 5479 5486 5491 5497 5503 5506 5510 5518 5526 5530 5544 5559 5554 5562 5567 5574 5578 5580 5589 5593 5601 5596 5576 5590 5592 5583 5577 5572 5570 5563 5563 5561 5559 5543 5536 5544 5545 5546 5540 5535 5535 5519 5561
5457 5461 5465 5471 5476 5483 5487 5484 5492 5503 5510 5519 5528 5533 5536 5546 5545 5551 5552 5558 5560 5561 5566 5570 5565 5559 5556 5556 5553 5550 5546 5540 5557 5569 5571 5551 5535 5532 5525 5520 5516 5528 5536 5545
5440 5441 5444 5448 5452 5458 5465 5459 5470 5477 5489 5497 5501 5501 5500 5512 5517 5521 5525 5520 5526 5530 5524 5527 5522 5527 5524 5519 5521 5517 5517 5511 5506 5525 5518 5513 5521 5524 5515 5502 5509 5494 5527 5522
5420 5427 5425 5427 5431 5433 5441 5446 5453 5455 5459 5469 5481 5480 5490 5498 5495 5489 5495 5502 5501 5500 5502 5508 5512 5508 5501 5497 5492 5486 5484 5492 5482 5495 5506 5503 5502 5513 5497 5479 5486 5484 5491 5510
5400 5404 5408 5410 5410 5414 5420 5425 5429 5430 5441 5448 5461 5471 5477 5483 5481 5479 5483 5486 5484 5487 5490 5487 5479 5475 5481 5488 5486 5486 5476 5476 5470 5485 5496 5489 5483 5505 5501 5492 5499 5495 5483 5500
5382 5384 5388 5393 5395 5397 5398 5402 5406 5409 5427 5430 5444 5447 5452 5452 5463 5462 5469 5469 5468 5476 5470 5462 5463 5465 5468 5472 5477 5474 5464 5459 5454 5461 5445 5456 5512 5494 5490 5494 5496 5493 5481 5486
5371 5371 5373 5374 5380 5381 5380 5380 5380 5380 5401 5413 5421 5423 5426 5437 5442 5434 5436 5444 5457 5454 5446 5440 5443 5449 5446 5458 5467 5468 5465 5456 5444 5440 5449 5471 5485 5483 5467 5458 5486 5481 5467 5470
5361 5362 5362 5366 5365 5367 5366 5368 5366 5359 5369 5394 5397 5400 5403 5412 5422 5426 5424 5432 5433 5430 5425 5431 5439 5443 5456 5440 5445 5438 5444 5441 5426 5428 5431 5434 5484 5461 5445 5446 5450 5481 5462 5463
5351 5354 5354 5353 5354 5354 5353 5355 5353 5345 5350 5364 5370 5381 5390 5398 5399 5406 5408 5410 5406 5405 5413 5420 5426 5429 5440 5432 5440 5425 5420 5413 5422 5424 5428 5425 5466 5444 5432 5430 5465 5452 5448 5449
5343 5344 5345 5345 5344 5344 5341 5344 5342 5334 5333 5342 5352 5361 5370 5376 5374 5378 5385 5390 5396 5394 5400 5407 5418 5415 5422 5420 5441 5435 5429 5415 5416 5410 5414 5418 5443 5422 5431 5455 5438 5439 5431 5432
5334 5336 5336 5337 5337 5337 5334 5335 5331 5327 5324 5330 5337 5347 5363 5364 5369 5372 5360 5372 5378 5383 5396 5402 5404 5406 5398 5409 5410 5406 5410 5422 5421 5424 5430 5428 5421 5437 5437 5428 5434 5425 5424 5419
5326 5328 5329 5330 5330 5329 5325 5324 5321 5316 5315 5320 5328 5348 5350 5348 5357 5355 5353 5363 5375 5372 5370 5377 5388 5394 5390 5398 5403 5404 5403 5398 5399 5394 5416 5421 5412 5415 5410 5414 5417 5414 5410 5408
5318 5320 5321 5322 5322 5320 5318 5317 5313 5309 5302 5308 5340 5331 5336 5340 5342 5344 5349 5359 5353 5359 5360 5362 5373 5385 5389 5398 5398 5402 5405 5393 5398 5396 5415 5394 5404 5405 5415 5407 5400 5398 5395 5396
5313 5315 5316 5316 5316 5312 5308 5310 5309 5306 5299 5303 5318 5320 5327 5326 5327 5332 5335 5341 5343 5339 5347 5358 5369 5368 5370 5362 5367 5382 5393 5403 5395 5403 5424 5407 5421 5411 5403 5396 5393 5392 5388 5380
5306 5309 5310 5310 5308 5304 5299 5299 5305 5301 5295 5287 5303 5315 5314 5313 5314 5319 5325 5328 5330 5331 5341 5353 5356 5359 5365 5358 5370 5415 5412 5402 5402 5406 5403 5395 5386 5379 5375 5379 5380 5378 5375 5374
5299 5302 5303 5302 5300 5296 5294 5295 5298 5292 5286 5286 5297 5309 5303 5303 5305 5308 5312 5312 5318 5325 5335 5339 5342 5343 5349 5354 5372 5400 5389 5388 5384 5378 5371 5373 5365 5375 5366 5365 5364 5364 5360 5356
5294 5294 5296 5296 5295 5291 5289 5288 5286 5283 5277 5276 5292 5301 5297 5295 5305 5308 5302 5308 5308 5314 5323 5322 5326 5324 5329 5345 5380 5365 5360 5360 5360 5359 5354 5353 5350 5348 5348 5347 5348 5348 5345 5339
5297 5295 5293 5290 5288 5287 5290 5288 5283 5278 5273 5280 5282 5300 5311 5290 5295 5296 5295 5295 5305 5299 5310 5313 5313 5322 5335 5347 5343 5344 5340 5346 5346 5337 5337 5334 5338 5334 5332 5333 5333 5333 5326 5323
5299 5293 5286 5289 5286 5292 5289 5278 5276 5272 5272 5271 5280 5280 5289 5287 5292 5292 5288 5286 5297 5299 5295 5288 5301 5319 5311 5297 5298 5303 5306 5312 5320 5316 5319 5319 5320 5320 5317 5318 5315 5316 5312 5306
5297 5288 5284 5278 5283 5284 5280 5281 5277 5275 5274 5278 5284 5286 5290 5279 5288 5290 5284 5287 5283 5288 5285 5284 5290 5305 5295 5281 5280 5282 5284 5290 5300 5301 5308 5312 5311 5305 5300 5298 5297 5294 5291 5288
5302 5294 5283 5275 5275 5271 5276 5269 5259 5266 5281 5269 5273 5278 5283 5276 5277 5280 5274 5276 5269 5281 5257 5269 5285 5284 5269 5261 5259 5266 5271 5277 5285 5286 5290 5291 5289 5286 5281 5280 5277 5275 5271 5267
5299 5288 5276 5274 5258 5271 5269 5267 5267 5264 5269 5266 5267 5270 5272 5268 5269 5269 5267 5265 5266 5252 5256 5273 5271 5253 5253 5248 5251 5257 5258 5261 5265 5267 5266 5265 5263 5262 5258 5256 5256 5252 5250 5248
5296 5289 5273 5272 5266 5268 5274 5271 5265 5259 5261 5262 5264 5262 5264 5259 5260 5257 5261 5245 5246 5242 5240 5258 5245 5238 5238 5236 5238 5242 5240 5241 5243 5244 5245 5245 5244 5243 5241 5239 5236 5234 5234 5235
5273 5276 5268 5254 5247 5243 5242 5243 5250 5248 5252 5255 5253 5251 5252 5248 5242 5243 5237 5232 5239 5239 5245 5232 5227 5222 5220 5223 5225 5226 5226 5222 5223 5223 5225 5223 5222 5220 5222 5223 5221 5220 5219 5220
5259 5246 5248 5246 5249 5241 5240 5240 5240 5232 5238 5241 5241 5240 5239 5233 5231 5231 5235 5236 5235 5226 5212 5211 5209 5208 5207 5206 5207 5208 5207 5207 5207 5205 5205 5207 5205 5205 5208 5207 5205 5205 5204 5207
5230 5227 5230 5226 5226 5224 5222 5220 5217 5213 5224 5233 5221 5228 5225 5196 5206 5212 5203 5215 5205 5199 5196 5195 5192 5190 5190 5189 5190 5193 5194 5195 5193 5189 5188 5190 5189 5184 5182 5186 5193 5191 5191 5192